GW5739 Weather Reports


time (UTC)temp
C
wind
direction
speed
KPH
gust
KPH
rain 1hr
cm
rain 24hr
cm
rain mn
cm
humidity
%
barometer
mb
20260503195053 24 340 1.6 6.4 0.00 0.00 0.00 51 1013.2
20260503194604 24 289 0.0 6.4 0.00 0.00 0.00 50 1013.3
20260503194052 24 270 0.0 11.3 0.00 0.00 0.00 50 1013.4
20260503193552 23 212 0.0 11.3 0.00 0.00 0.00 52 1013.4
20260503193124 23 23 1.6 11.3 0.00 0.00 0.00 51 1013.5
20260503192552 23 18 1.6 9.7 0.00 0.00 0.00 50 1013.5
20260503192053 23 20 1.6 8.0 0.00 0.00 0.00 49 1013.6
20260503191600 23 10 0.0 9.7 0.00 0.00 0.00 51 1013.6
20260503191054 22 20 1.6 9.7 0.00 0.00 0.00 53 1013.6
20260503190553 22 348 3.2 9.7 0.00 0.00 0.00 52 1013.6
20260503190055 22 277 1.6 9.7 0.00 0.00 0.00 56 1013.7
20260503185552 22 26 1.6 9.7 0.00 0.00 0.00 56 1013.9
20260503185052 22 0 1.6 8.0 0.00 0.00 0.00 59 1013.9
20260503184558 21 335 1.6 8.0 0.00 0.00 0.00 61 1013.9
20260503184052 21 0 3.2 9.7 0.00 0.00 0.00 62 1013.9
20260503183552 21 285 3.2 9.7 0.00 0.00 0.00 62 1014.0
20260503183057 21 255 3.2 9.7 0.00 0.00 0.00 61 1014.1
20260503182556 21 284 1.6 8.0 0.00 0.00 0.00 64 1014.2
20260503182053 20 0 1.6 9.7 0.00 0.00 0.00 65 1014.3
20260503181623 20 283 3.2 9.7 0.00 0.00 0.00 65 1014.3
20260503181053 20 0 0.0 9.7 0.00 0.00 0.00 66 1014.3
20260503180554 20 51 1.6 8.0 0.00 0.00 0.00 64 1014.4
20260503180126 20 17 0.0 8.0 0.00 0.00 0.00 69 1014.4
20260503175556 19 311 0.0 8.0 0.00 0.00 0.00 67 1014.4
20260503175050 19 286 0.0 8.0 0.00 0.00 0.00 68 1014.6
20260503174558 20 267 3.2 6.4 0.00 0.00 0.00 68 1014.5
20260503174052 19 310 0.0 6.4 0.00 0.00 0.00 69 1014.4
20260503173552 19 283 1.6 6.4 0.00 0.00 0.00 68 1014.5
20260503173100 19 189 0.0 8.0 0.00 0.00 0.00 69 1014.6
20260503172555 18 277 3.2 8.0 0.00 0.00 0.00 69 1014.6
20260503172053 18 0 1.6 4.8 0.00 0.00 0.00 69 1014.6
20260503171556 18 345 0.0 6.4 0.00 0.00 0.00 71 1014.7
20260503171053 18 280 0.0 8.0 0.00 0.00 0.00 71 1014.7
20260503170553 18 0 3.2 8.0 0.00 0.00 0.00 69 1014.7
20260503150552 12 23 1.6 6.4 0.00 0.00 0.00 85 1015.1
20260503131052 8 0 0.0 0.0 0.00 0.00 0.00 94 1014.7
20260503130553 8 0 0.0 0.0 0.00 0.00 0.00 94 1014.7
20260503120109 8 0 0.0 0.0 0.00 0.00 0.00 93 1014.9
20260503110552 9 0 0.0 0.0 0.00 0.00 0.00 93 1015.0
20260503100108 9 0 0.0 0.0 0.00 0.00 0.00 91 1015.0
20260503081559 10 0 0.0 0.0 0.00 0.00 0.00 90 1015.2
20260503081053 10 0 0.0 0.0 0.00 0.00 0.00 90 1015.2
20260503080553 11 0 0.0 0.0 0.00 0.00 0.00 90 1015.2
20260503072554 11 0 0.0 0.0 0.00 0.00 0.00 87 1015.0
20260503072054 11 0 0.0 0.0 0.00 0.00 0.00 87 1014.8
20260503071558 11 0 0.0 0.0 0.00 0.00 0.00 87 1014.9
20260503071055 11 0 0.0 0.0 0.00 0.00 0.00 87 1014.9
20260503070553 11 0 0.0 0.0 0.00 0.00 0.00 87 1014.9
20260503060114 12 0 0.0 0.0 0.00 0.00 0.00 83 1014.8
20260503055053 12 0 0.0 0.0 0.00 0.00 0.00 79 1014.7
20260503054553 13 0 0.0 0.0 0.00 0.00 0.00 80 1014.7
20260503054053 13 0 0.0 0.0 0.00 0.00 0.00 79 1014.8
20260503053555 13 0 0.0 0.0 0.00 0.00 0.00 79 1014.9
20260503053103 13 0 0.0 0.0 0.00 0.00 0.00 79 1014.9
20260503052556 12 0 0.0 0.0 0.00 0.00 0.00 80 1014.9
20260503052053 12 0 0.0 0.0 0.00 0.00 0.00 80 1014.9
20260503051553 13 0 0.0 0.0 0.00 0.00 0.00 80 1014.9
20260503051052 13 0 0.0 0.0 0.00 0.00 0.00 80 1014.9
20260503050552 13 0 0.0 0.0 0.00 0.00 0.00 79 1014.8
20260503050056 13 0 0.0 0.0 0.00 0.00 0.00 80 1014.8
20260503045554 13 0 0.0 0.0 0.00 0.00 0.00 79 1014.7
20260503045056 13 0 0.0 0.0 0.00 0.00 0.00 78 1014.7
20260503044619 14 0 0.0 0.0 0.00 0.00 0.00 79 1014.6
20260503044055 14 0 0.0 0.0 0.00 0.00 0.00 77 1014.5
20260503043552 15 0 0.0 0.0 0.00 0.00 0.00 77 1014.4
20260503043051 15 0 0.0 0.0 0.00 0.00 0.00 75 1014.4
20260503042553 15 0 0.0 0.0 0.00 0.00 0.00 74 1014.3
20260503042053 15 0 0.0 0.0 0.00 0.00 0.00 70 1014.2
20260503041557 15 0 0.0 0.0 0.00 0.00 0.00 71 1014.2
20260503041052 15 0 0.0 0.0 0.00 0.00 0.00 71 1014.1
20260503040553 15 0 0.0 0.0 0.00 0.00 0.00 70 1014.1
20260503040105 16 0 0.0 0.0 0.00 0.00 0.00 70 1014.1
20260503035554 16 0 0.0 0.0 0.00 0.00 0.00 69 1014.1
20260503035053 16 0 0.0 0.0 0.00 0.00 0.00 69 1013.9
20260503034559 16 0 0.0 0.0 0.00 0.00 0.00 66 1013.8
20260503034054 17 0 0.0 0.0 0.00 0.00 0.00 68 1013.8
20260503033553 17 0 0.0 0.0 0.00 0.00 0.00 65 1013.7
20260503033051 17 0 0.0 0.0 0.00 0.00 0.00 62 1013.6
20260503032556 17 0 0.0 0.0 0.00 0.00 0.00 63 1013.6
20260503032053 17 0 0.0 0.0 0.00 0.00 0.00 61 1013.6
20260503031557 18 0 0.0 0.0 0.00 0.00 0.00 61 1013.6
20260503031053 18 0 0.0 0.0 0.00 0.00 0.00 60 1013.6
20260503030555 18 0 0.0 0.0 0.00 0.00 0.00 58 1013.5
20260503030106 18 0 0.0 0.0 0.00 0.00 0.00 58 1013.5
20260503025553 19 0 0.0 0.0 0.00 0.00 0.00 57 1013.5
20260503025055 19 0 0.0 6.4 0.00 0.00 0.00 57 1013.5
20260503024602 20 0 0.0 6.4 0.00 0.00 0.00 55 1013.5
20260503024054 20 273 0.0 6.4 0.00 0.00 0.00 54 1013.5
20260503023555 20 269 0.0 6.4 0.00 0.00 0.00 55 1013.5
20260503023058 20 0 0.0 6.4 0.00 0.00 0.00 52 1013.5
20260503022553 21 289 1.6 12.9 0.00 0.00 0.00 52 1013.5
20260503022053 21 236 0.0 12.9 0.00 0.00 0.00 51 1013.5
20260503021557 21 352 0.0 6.4 0.00 0.00 0.00 50 1013.4
20260503021053 21 290 0.0 6.4 0.00 0.00 0.00 50 1013.5
20260503020553 20 277 1.6 4.8 0.00 0.00 0.00 50 1013.5
20260503015553 21 336 1.6 14.5 0.00 0.00 0.00 49 1013.5
20260503015053 21 108 0.0 14.5 0.00 0.00 0.00 50 1013.5
20260503014606 21 65 3.2 14.5 0.00 0.00 0.00 49 1013.6
20260503014053 21 0 0.0 12.9 0.00 0.00 0.00 48 1013.6
20260503013553 21 51 1.6 8.0 0.00 0.00 0.00 47 1013.7
20260503013102 21 262 3.2 9.7 0.00 0.00 0.00 47 1013.6
20260503012559 22 25 3.2 11.3 0.00 0.00 0.00 48 1013.7
20260503012053 22 264 1.6 11.3 0.00 0.00 0.00 47 1013.7
20260503011554 22 270 0.0 9.7 0.00 0.00 0.00 49 1013.7
20260503011053 22 70 3.2 9.7 0.00 0.00 0.00 48 1013.7
20260503010553 22 103 3.2 9.7 0.00 0.00 0.00 50 1013.8
20260503010052 22 262 3.2 11.3 0.00 0.00 0.00 54 1013.9
20260503005556 22 7 3.2 11.3 0.00 0.00 0.00 55 1013.9
20260503005054 22 139 3.2 6.4 0.00 0.00 0.00 56 1013.9
20260503004600 22 290 0.0 16.1 0.00 0.00 0.00 58 1013.8
20260503004053 22 272 4.8 16.1 0.00 0.00 0.00 57 1013.8
20260503003554 22 0 1.6 16.1 0.00 0.00 0.00 58 1013.8
20260503003054 22 0 1.6 9.7 0.00 0.00 0.00 57 1013.8
20260503002557 22 30 1.6 11.3 0.00 0.00 0.00 58 1013.8
20260503002053 22 271 3.2 12.9 0.00 0.00 0.00 57 1013.8
20260503001554 22 87 3.2 12.9 0.00 0.00 0.00 58 1013.9
20260503001057 22 309 4.8 12.9 0.00 0.00 0.00 57 1013.9
20260503000553 22 326 1.6 9.7 0.00 0.00 0.00 60 1014.0
20260503000103 22 278 3.2 12.9 0.00 0.00 0.00 59 1014.0
20260502235553 22 0 1.6 12.9 0.00 0.00 0.00 59 1013.9
20260502235053 22 4 0.0 8.0 0.00 0.00 0.00 60 1014.0
20260502234603 22 253 1.6 8.0 0.00 0.00 0.00 59 1014.0
20260502234054 22 57 4.8 9.7 0.00 0.00 0.00 59 1014.1
20260502233554 22 251 1.6 9.7 0.00 0.00 0.00 60 1014.1
20260502233054 23 278 1.6 8.0 0.00 0.00 0.00 60 1014.2
20260502232553 23 57 1.6 12.9 0.00 0.00 0.00 60 1014.3
20260502232053 23 3 3.2 12.9 0.00 0.00 0.00 59 1014.3
20260502231552 23 286 1.6 6.4 0.00 0.00 0.00 60 1014.4
20260502231054 23 285 1.6 16.1 0.00 0.00 0.00 59 1014.5
20260502230554 23 281 1.6 16.1 0.00 0.00 0.00 59 1014.6
20260502230056 23 255 3.2 16.1 0.00 0.00 0.00 60 1014.6
20260502225556 23 37 0.0 6.4 0.00 0.00 0.00 61 1014.7
20260502225053 23 350 1.6 6.4 0.00 0.00 0.00 62 1014.8
20260502224555 23 13 0.0 9.7 0.00 0.00 0.00 61 1014.7
20260502224053 23 252 0.0 9.7 0.00 0.00 0.00 60 1014.8
20260502223559 22 263 3.2 9.7 0.00 0.00 0.00 62 1014.9
20260502223105 22 333 3.2 11.3 0.00 0.00 0.00 64 1015.0
20260502222554 22 187 3.2 11.3 0.00 0.00 0.00 63 1015.0
20260502222055 22 211 4.8 14.5 0.00 0.00 0.00 63 1015.1
20260502221601 22 20 3.2 14.5 0.00 0.00 0.00 62 1015.2
20260502221053 22 197 1.6 11.3 0.00 0.00 0.00 65 1015.1
20260502220557 22 334 3.2 11.3 0.00 0.00 0.00 63 1015.1
20260502215554 22 120 1.6 8.0 0.00 0.00 0.00 62 1015.3
20260502215055 22 313 3.2 12.9 0.00 0.00 0.00 62 1015.3
20260502214613 22 290 3.2 12.9 0.00 0.00 0.00 64 1015.3
20260502214054 22 196 1.6 11.3 0.00 0.00 0.00 62 1015.3
20260502213557 22 281 3.2 11.3 0.00 0.00 0.00 62 1015.5
20260502213119 22 333 4.8 9.7 0.00 0.00 0.00 60 1015.6
20260502212553 22 351 1.6 9.7 0.00 0.00 0.00 60 1015.7
20260502212054 22 269 1.6 6.4 0.00 0.00 0.00 60 1015.7
20260502211556 22 293 0.0 8.0 0.00 0.00 0.00 62 1015.7
20260502211054 22 359 1.6 11.3 0.00 0.00 0.00 66 1015.8
20260502210554 21 236 3.2 11.3 0.00 0.00 0.00 64 1015.7
20260502210052 21 0 1.6 14.5 0.00 0.00 0.00 65 1015.7
20260502205556 21 276 3.2 14.5 0.00 0.00 0.00 66 1015.7
20260502205057 21 304 4.8 14.5 0.00 0.00 0.00 65 1015.8
20260502204553 21 281 1.6 9.7 0.00 0.00 0.00 67 1015.9
20260502204058 21 0 1.6 11.3 0.00 0.00 0.00 70 1016.0
20260502203555 21 0 3.2 11.3 0.00 0.00 0.00 68 1016.1
20260502203113 21 313 3.2 9.7 0.00 0.00 0.00 68 1016.2
20260502202602 21 276 1.6 8.0 0.00 0.00 0.00 67 1016.2
20260502202053 21 96 1.6 8.0 0.00 0.00 0.00 69 1016.4
20260502201558 21 28 1.6 9.7 0.00 0.00 0.00 66 1016.4
20260502201055 21 341 1.6 9.7 0.00 0.00 0.00 67 1016.4
20260502200554 21 124 1.6 14.5 0.00 0.00 0.00 69 1016.4
20260502200059 20 286 3.2 14.5 0.00 0.00 0.00 69 1016.5
20260502195553 20 4 0.0 6.4 0.00 0.00 0.00 69 1016.4